TimeMDT,TemperatureF,Dew PointF,Humidity,Sea Level PressureIn,VisibilityMPH,Wind Direction,Wind SpeedMPH,Gust SpeedMPH,PrecipitationIn,Events,Conditions,WindDirDegrees,DateUTC
12:55 AM,43.0,39.9,89,30.14,10.0,Calm,Calm,-,N/A,,Clear,0,2013-06-05 06:55:00
1:55 AM,41.0,39.0,93,30.14,10.0,West,4.6,-,N/A,,Clear,270,2013-06-05 07:55:00
2:55 AM,39.0,37.0,93,30.14,10.0,WNW,3.5,-,N/A,,Clear,290,2013-06-05 08:55:00
3:55 AM,39.0,37.0,93,30.14,10.0,Calm,Calm,-,N/A,,Clear,0,2013-06-05 09:55:00
4:55 AM,39.0,37.0,93,30.14,10.0,Calm,Calm,-,N/A,,Clear,0,2013-06-05 10:55:00
5:55 AM,39.0,37.0,93,30.14,10.0,WNW,3.5,-,N/A,,Clear,300,2013-06-05 11:55:00
6:55 AM,45.0,41.0,86,30.13,10.0,Calm,Calm,-,N/A,,Clear,0,2013-06-05 12:55:00
7:55 AM,52.0,41.0,66,30.11,10.0,North,4.6,-,N/A,,Clear,10,2013-06-05 13:55:00
8:55 AM,55.9,39.0,53,30.10,10.0,ENE,6.9,-,N/A,,Clear,70,2013-06-05 14:55:00
9:55 AM,57.9,41.0,53,30.11,10.0,SSE,5.8,-,N/A,,Clear,150,2013-06-05 15:55:00
10:55 AM,61.0,41.0,48,30.10,10.0,Calm,Calm,-,N/A,,Clear,0,2013-06-05 16:55:00
11:55 AM,64.9,41.0,42,30.09,10.0,South,8.1,-,N/A,,Clear,170,2013-06-05 17:55:00
12:55 PM,68.0,42.1,39,30.06,10.0,South,10.4,-,N/A,,Clear,170,2013-06-05 18:55:00
1:55 PM,72.0,42.1,34,30.04,10.0,South,9.2,-,N/A,,Clear,180,2013-06-05 19:55:00
2:55 PM,72.0,41.0,33,30.01,10.0,SSE,12.7,-,N/A,,Clear,150,2013-06-05 20:55:00
3:55 PM,73.9,42.1,32,29.99,10.0,SSE,15.0,-,N/A,,Clear,160,2013-06-05 21:55:00
4:55 PM,73.0,44.1,35,29.97,10.0,South,15.0,20.7,N/A,,Clear,170,2013-06-05 22:55:00
5:55 PM,72.0,45.0,38,29.96,10.0,South,9.2,-,N/A,,Scattered Clouds,170,2013-06-05 23:55:00
6:55 PM,73.9,45.0,35,29.93,10.0,SSE,10.4,-,N/A,,Mostly Cloudy,160,2013-06-06 00:55:00
7:55 PM,71.1,46.9,42,29.92,10.0,SE,9.2,19.6,N/A,,Clear,140,2013-06-06 01:55:00
8:55 PM,70.0,46.0,42,29.92,10.0,Calm,Calm,-,N/A,,Clear,0,2013-06-06 02:55:00
9:55 PM,62.1,48.9,62,29.94,10.0,Calm,Calm,-,N/A,,Clear,0,2013-06-06 03:55:00
10:55 PM,57.0,48.9,74,29.96,10.0,NNE,4.6,-,N/A,,Clear,30,2013-06-06 04:55:00
11:55 PM,54.0,48.0,80,29.96,10.0,Calm,Calm,-,N/A,,Clear,0,2013-06-06 05:55:00